Regional Weather Roundup
Issued by NWS

Home | Current Version | Previous Version | Text Only | Print | Product List | Glossary Off
Versions: 1 2 3 4 5 6 7 8 9 10 11 12 13 14 15 16 17 18 19 20 21 22 23 24 25 26 27

000
ASUS45 KSLC 290410
RWRUT

UTAH REGIONAL WEATHER ROUNDUP
NATIONAL WEATHER SERVICE SALT LAKE CITY UT
1000 PM MDT SAT MAY 28 2016

UTZ001>011-023>025-290500-

NORTHERN UTAH

CITY           SKY/WX    TMP DP  RH WIND       PRES   REMARKS
BRIGHAM CITY     N/A     64  38  38 CALM      30.06R
HILL AFB       PTCLDY    62  34  34 E2        30.08R
LOGAN          CLEAR     58  41  53 SE5       30.07R
OGDEN          PTCLDY    62  36  37 CALM      30.06R
PROVO AIRPORT  CLOUDY    64  45  48 N5        30.09R
SALT LAKE CITY MOCLDY    66  40  38 CALM      30.06R
VERNAL         CLOUDY    57  43  59 NW6       30.12R
WENDOVER       MOCLDY    64  39  39 N7        30.03F
HEBER CITY     MOCLDY    46  39  76 E6        30.11R
WEST JORDAN    CLEAR     59  43  55 W6        30.09R

$$

UTZ012>022-026-027-290500-

SOUTHERN/CENTRAL UTAH

CITY           SKY/WX    TMP DP  RH WIND       PRES   REMARKS
BLANDING       PTCLDY    58  30  34 N9        30.17R
BRYCE CANYON   MOCLDY    50  35  56 NE9       30.20R
CEDAR CITY     MOCLDY    61  35  37 N8        30.05R
DELTA          MOCLDY    61  37  41 E7        30.07R
HANKSVILLE     MOCLDY    63  32  31 NW3       30.05S
MILFORD        MOCLDY    59  37  44 NW8       30.04S
MOAB/CYNLANDS  PTCLDY    65  31  28 CALM      30.03R
PRICE          CLOUDY    57  40  52 NW9       30.15R
ST GEORGE      MOCLDY    81  30  16 W6        29.89R
KANAB          PTCLDY    66  32  28 N7        30.04

$$

REGIONAL REPORTS     COLORADO/ARIZONA

CITY           SKY/WX    TMP DP  RH WIND       PRES   REMARKS
CRAIG, CO      CLOUDY    50  37  61 CALM      30.17R
GRAND JUNCTION CLOUDY    61  35  37 N6        30.09R
RIFLE          CLEAR     53  37  54 SE8       30.14R
MONTROSE       CLOUDY    60  33  36 CALM      30.15R
CORTEZ         CLOUDY    53  34  48 E6        30.12R
PAGE, AZ       PTCLDY    73  30  20 NW3       29.96R
GRAND CANYON   PTCLDY    49  27  42 CALM      30.13R
KINGMAN        PTCLDY    71  25  17 MISG      29.92R
FLAGSTAFF      PTCLDY    49  21  33 CALM      30.16R

$$

REGIONAL REPORTS    NEVADA/IDAHO/WYOMING

CITY           SKY/WX    TMP DP  RH WIND       PRES   REMARKS
LAS VEGAS, NV  PTCLDY    85  22  10 SW6       29.78R
ELY            CLOUDY    54  40  59 VRB3      30.12S
ELKO           PTCLDY    61  42  49 NW3       30.04R
POCATELLO, ID  CLOUDY    46  34  62 S7        30.08R
BURLEY         CLEAR     55  33  43 CALM      30.05R
EVANSTON, WY   CLEAR     50  28  42 W9        30.19R
ROCK SPRINGS   CLOUDY    51  31  46 S5        30.16R
KEMMERER         N/A     45  32  61 N9        30.20R

$$




USA.gov is the U.S. government's official web portal to all federal, state and local government web resources and services.